Weather History for Altus, OK

Change the Weather History Date:

Monday, September 16, 2013

  Actual Average (KLTS) Record (KLTS)
Temperature  
Mean Temperature 81 °F -  
Max Temperature 93 °F 85 °F 100 °F (2004)
Min Temperature 69 °F 62 °F 48 °F (2008)
Cooling Degree Days 16    
Growing Degree Days 31 (Base 50)    
Moisture  
Dew Point 65 °F    
Average Humidity 66    
Maximum Humidity 88    
Minimum Humidity 34    
Precipitation  
Precipitation 1.42 in - - ()
Sea Level Pressure  
Sea Level Pressure 30.11 in    
Wind  
Wind Speed 9 mph (ENE)    
Max Wind Speed 23 mph    
Max Gust Speed 38 mph    
Visibility 9 miles    
Events Rain , Thunderstorm    
Averages and records for this station are not official NWS values.
T = Trace of Precipitation, MM = Missing Value Source: NWS Daily Summary

Daily Weather History Graph

Daily Weather History Graph

Search for Another Location

Airport:

Trip Planner

Search our weather history database for the weather conditions in past years. The results will help you decide how hot, cold, wet, or windy it might be!

Date:

Astronomy

Sep. 16, 2013 Rise Set
Actual Time 7:21 AM CDT 7:42 PM CDT
Civil Twilight 6:56 AM CDT 8:07 PM CDT
Nautical Twilight 6:26 AM CDT 8:37 PM CDT
Astronomical Twilight 5:56 AM CDT 9:07 PM CDT
Moon 5:47 PM CDT (9/16) 4:15 AM CDT (9/16)
Length of Visible Light 13h 11m
Length of Day
12h 21m
Waxing Gibbous, 90% of the Moon is Illuminated
Sep 16
Waxing Gibbous
Sep 19
Full
Sep 26
Last Quarter
Oct 4
New
Oct 11
First Quarter

Hourly Weather History & Observations

Time (CDT) Temp. Heat Index Dew Point Humidity Pressure Visibility Wind Dir Wind Speed Gust Speed Precip Events Conditions
12:19 AM 78.8 °F - 64.4 °F 61% 30.07 in 10.0 mi East 8.1 mph - N/A Thunderstorm Clear
12:39 AM 78.8 °F - 66.2 °F 65% 30.07 in 10.0 mi East 8.1 mph - N/A   Clear
12:59 AM 78.8 °F - 66.2 °F 65% 30.06 in 10.0 mi East 6.9 mph - N/A   Clear
1:19 AM 78.8 °F - 64.4 °F 61% 30.05 in 10.0 mi ESE 6.9 mph - N/A   Clear
1:39 AM 78.8 °F - 64.4 °F 61% 30.06 in 10.0 mi ESE 6.9 mph - N/A   Clear
2:01 AM 78.8 °F - 64.4 °F 61% 30.06 in 10.0 mi ESE 6.9 mph - N/A   Clear
2:19 AM 78.8 °F - 64.4 °F 61% 30.06 in 10.0 mi ESE 6.9 mph - N/A   Clear
2:42 AM 78.8 °F - 64.4 °F 61% 30.07 in 10.0 mi ESE 6.9 mph - N/A   Clear
2:59 AM 78.8 °F - 64.4 °F 61% 30.08 in 10.0 mi East 4.6 mph - N/A   Scattered Clouds
3:19 AM 78.8 °F - 64.4 °F 61% 30.09 in 10.0 mi North 13.8 mph - N/A   Mostly Cloudy
3:40 AM 75.2 °F - 64.4 °F 69% 30.10 in 10.0 mi North 12.7 mph 19.6 mph N/A   Overcast
4:01 AM 75.2 °F - 64.4 °F 69% 30.10 in 10.0 mi North 16.1 mph - N/A   Overcast
4:19 AM 73.4 °F - 64.4 °F 73% 30.10 in 10.0 mi NNE 15.0 mph - N/A   Overcast
4:39 AM 73.4 °F - 64.4 °F 73% 30.11 in 10.0 mi NE 9.2 mph - N/A   Overcast
4:59 AM 73.4 °F - 64.4 °F 73% 30.11 in 10.0 mi NE 6.9 mph - N/A   Mostly Cloudy
5:19 AM 73.4 °F - 64.4 °F 73% 30.11 in 10.0 mi NE 8.1 mph - N/A   Scattered Clouds
5:39 AM 71.6 °F - 64.4 °F 78% 30.11 in 10.0 mi ENE 8.1 mph - N/A   Scattered Clouds
5:59 AM 71.6 °F - 64.4 °F 78% 30.12 in 10.0 mi North 6.9 mph - N/A   Mostly Cloudy
6:19 AM 71.6 °F - 64.4 °F 78% 30.13 in 10.0 mi North 10.4 mph - N/A   Mostly Cloudy
6:39 AM 71.6 °F - 64.4 °F 78% 30.14 in 10.0 mi North 8.1 mph - N/A   Mostly Cloudy
6:59 AM 71.6 °F - 64.4 °F 78% 30.14 in 10.0 mi North 10.4 mph - N/A   Mostly Cloudy
7:19 AM 71.6 °F - 64.4 °F 78% 30.14 in 10.0 mi NE 8.1 mph - N/A   Scattered Clouds
7:39 AM 71.6 °F - 62.6 °F 73% 30.14 in 10.0 mi NE 6.9 mph - N/A   Clear
7:59 AM 71.6 °F - 62.6 °F 73% 30.15 in 10.0 mi ENE 4.6 mph - N/A   Clear
8:19 AM 71.6 °F - 64.4 °F 78% 30.15 in 10.0 mi NE 8.1 mph - N/A   Clear
8:39 AM 73.4 °F - 64.4 °F 73% 30.16 in 10.0 mi ENE 10.4 mph - N/A   Clear
8:59 AM 73.4 °F - 64.4 °F 73% 30.16 in 10.0 mi ENE 12.7 mph - N/A   Clear
9:19 AM 75.2 °F - 64.4 °F 69% 30.16 in 10.0 mi East 12.7 mph - N/A   Clear
9:39 AM 75.2 °F - 64.4 °F 69% 30.16 in 10.0 mi ENE 16.1 mph - N/A   Clear
9:59 AM 78.8 °F - 64.4 °F 61% 30.16 in 10.0 mi East 11.5 mph - N/A   Clear
10:19 AM 78.8 °F - 64.4 °F 61% 30.17 in 10.0 mi East 11.5 mph - N/A   Clear
10:39 AM 80.6 °F 82.3 °F 64.4 °F 58% 30.17 in 10.0 mi East 11.5 mph - N/A   Clear
10:59 AM 82.4 °F 83.9 °F 64.4 °F 54% 30.17 in 10.0 mi East 11.5 mph - N/A   Clear
11:19 AM 84.2 °F 85.0 °F 62.6 °F 48% 30.17 in 10.0 mi East 11.5 mph - N/A   Clear
11:39 AM 86.0 °F 86.6 °F 62.6 °F 45% 30.17 in 10.0 mi East 11.5 mph 16.1 mph N/A   Clear
11:59 AM 87.8 °F 88.5 °F 62.6 °F 43% 30.16 in 10.0 mi ESE 10.4 mph 16.1 mph N/A   Clear
12:21 PM 87.8 °F 88.5 °F 62.6 °F 43% 30.16 in 10.0 mi East 5.8 mph - N/A   Clear
12:41 PM 89.6 °F 90.1 °F 62.6 °F 40% 30.16 in 10.0 mi East 6.9 mph - N/A   Clear
12:59 PM 89.6 °F 90.1 °F 62.6 °F 40% 30.15 in 10.0 mi SE 8.1 mph - N/A   Clear
1:19 PM 91.4 °F 92.1 °F 62.6 °F 38% 30.14 in 10.0 mi SE 9.2 mph - N/A   Clear
1:59 PM 89.6 °F 90.1 °F 62.6 °F 40% 30.12 in 10.0 mi SE 6.9 mph - N/A   Clear
3:02 PM 91.4 °F 91.4 °F 60.8 °F 36% 30.08 in 10.0 mi SSE 11.5 mph - N/A   Scattered Clouds
3:19 PM 93.2 °F 94.1 °F 62.6 °F 36% 30.07 in 10.0 mi ESE 6.9 mph 16.1 mph N/A   Clear
3:39 PM 93.2 °F 93.3 °F 60.8 °F 34% 30.06 in 10.0 mi SSE 6.9 mph - N/A   Clear
3:59 PM 91.4 °F 91.4 °F 60.8 °F 36% 30.06 in 10.0 mi ESE 10.4 mph - N/A   Clear
4:39 PM 91.4 °F 91.4 °F 60.8 °F 36% 30.04 in 10.0 mi SE 11.5 mph 16.1 mph N/A   Scattered Clouds
4:59 PM 91.4 °F 91.4 °F 60.8 °F 36% 30.03 in 10.0 mi SE 11.5 mph 17.3 mph N/A   Scattered Clouds
5:21 PM 86.0 °F 87.3 °F 64.4 °F 48% 30.06 in 10.0 mi NW 23.0 mph 27.6 mph N/A Thunderstorm Thunderstorm
5:41 PM 75.2 °F - 66.2 °F 73% 30.06 in 5.0 mi NNW 23.0 mph 28.8 mph 0.02 in Rain , Thunderstorm Heavy Thunderstorms and Rain
5:59 PM 69.8 °F - 66.2 °F 88% 30.07 in 0.8 mi NNW 20.7 mph 38.0 mph 0.01 in Rain , Thunderstorm Light Thunderstorms and Rain
6:19 PM 71.6 °F - 68.0 °F 88% 30.11 in 0.8 mi ENE 19.6 mph - 0.47 in Rain , Thunderstorm Heavy Thunderstorms and Rain
6:39 PM 69.8 °F - 64.4 °F 83% 30.11 in 0.5 mi Calm Calm - 1.01 in Rain , Thunderstorm Heavy Thunderstorms and Rain
6:59 PM 69.8 °F - 64.4 °F 83% 30.12 in 1.0 mi East 9.2 mph - 0.04 in Rain , Thunderstorm Heavy Thunderstorms and Rain
7:19 PM 69.8 °F - 64.4 °F 83% 30.09 in 5.0 mi NNE 3.5 mph - 0.26 in Rain , Thunderstorm Rain
7:39 PM 71.6 °F - 64.4 °F 78% 30.10 in 10.0 mi ENE 6.9 mph - 0.27 in Rain , Thunderstorm Light Thunderstorms and Rain
7:59 PM 73.4 °F - 64.4 °F 73% 30.10 in 10.0 mi Calm Calm - N/A Rain , Thunderstorm Light Thunderstorms and Rain
8:20 PM 73.4 °F - 66.2 °F 78% 30.09 in 10.0 mi NW 4.6 mph - 0.01 in Rain , Thunderstorm Rain
8:41 PM 71.6 °F - 66.2 °F 83% 30.10 in 7.0 mi West 5.8 mph - 0.06 in Rain Heavy Rain
9:03 PM 73.4 °F - 68.0 °F 83% 30.13 in 7.0 mi West 4.6 mph - 0.01 in Rain , Thunderstorm Rain
9:21 PM 71.6 °F - 66.2 °F 83% 30.14 in 10.0 mi NNW 4.6 mph - 0.02 in Rain Rain
9:40 PM 71.6 °F - 68.0 °F 88% 30.14 in 5.0 mi NW 3.5 mph - 0.04 in Rain Light Rain
10:00 PM 73.4 °F - 69.8 °F 88% 30.13 in 7.0 mi NW 6.9 mph - N/A Rain Light Rain
10:20 PM 73.4 °F - 69.8 °F 88% 30.13 in 7.0 mi NE 13.8 mph - 0.02 in Rain Light Rain
10:40 PM 73.4 °F - 68.0 °F 83% 30.14 in 10.0 mi NE 10.4 mph - 0.02 in Thunderstorm Scattered Clouds
11:00 PM 73.4 °F - 68.0 °F 83% 30.13 in 10.0 mi North 4.6 mph - N/A   Clear
11:20 PM 73.4 °F - 69.8 °F 88% 30.15 in 10.0 mi ENE 4.6 mph - N/A   Clear